Location: Cicognara
(44.9500°N, 10.4667°E)
Time: 23:41:31
(UTC+00:00)

Cosmos 1110 Rocket - Pass Details

Date: 20 June 2021
Orbit: 752 x 782 km, 74.0° (Epoch: 23 July)

Event Time Altitude Azimuth Distance (km) Brightness Sun altitude
Rises 19:44:59 0° 183° (S) 3,189 6.8 -5.9°
Reaches altitude 10° 19:47:23 10° 178° (S) 2,271 6.0 -6.2°
Maximum altitude 19:52:19 49° 105° (ESE) 978 4.2 -6.9°
Drops below altitude 10° 19:57:19 10° 31° (NNE) 2,302 6.7 -7.5°
Sets 19:59:46 0° 26° (NNE) 3,237 7.5 -7.8°
